Location: Bu�n Treun
(12.1333°N, 108.3167°E)
Time: 11:24:52
(UTC+00:00)

BEESAT - Visible Passes

Search period start: 27 September 2021 00:00
Search period end: 07 October 2021 00:00
Orbit: 699 x 708 km, 98.6° (Epoch: 26 September)

Date Brightness Start Highest point End Pass type
(mag) Time Alt. Az. Time Alt. Az. Time Alt. Az.
27 Sep ? 11:53:08 10° NNE 11:57:49 62° ESE 12:02:29 10° S visible
28 Sep ? 11:01:33 10° ENE 11:03:20 12° E 11:05:06 10° ESE visible
28 Sep ? 12:36:37 10° N 12:40:54 35° WNW 12:45:12 10° SW visible
29 Sep ? 11:42:02 10° NNE 11:46:31 43° ESE 11:51:01 10° S visible
30 Sep ? 12:25:04 10° N 12:29:38 50° WNW 12:34:13 10° SSW visible
01 Oct ? 11:31:05 10° NE 11:35:14 30° E 11:39:23 10° SSE visible
01 Oct ? 13:10:08 10° NW 13:12:38 14° WNW 13:15:08 10° WSW visible
02 Oct ? 12:13:40 10° N 12:18:22 72° WNW 12:23:06 10° SSW visible
03 Oct ? 11:20:19 10° NE 11:23:56 22° E 11:27:33 10° SSE visible
03 Oct ? 12:57:58 10° NNW 13:01:24 20° WNW 13:04:50 10° WSW visible
04 Oct ? 12:02:22 10° NNE 12:07:06 80° ESE 12:11:50 10° S visible
05 Oct ? 11:09:51 10° ENE 11:12:38 15° E 11:15:25 10° SE visible
05 Oct ? 12:47:58 20° NW 12:50:09 28° WNW 12:54:11 10° SW visible
06 Oct ? 11:53:32 28° NE 11:55:49 55° ESE 12:00:27 10° S visible
